CZ-6A DEB, 54555

Orbit data source: Space-Track

CZ-6A DEB, 54555 is space debris in SSO originally from a launch on Fri, 11 Nov 2022 UTC launched from the Taiyaun Space Center, China (TSC). Debris objects in space refer to the collection of defunct objects orbiting the Earth. Examples of debris include non-operational satellites, rocket bodies, and fragments generated from explosions, collisions, or faulty payload assembly.

Loading next visibility...
Identifier
54555, 2022-151LF
Orbit
SSO
Country
Flag of CNCN / PRC
Related business
Manufacturer
SAST
Mission
Spacecraft
Bus & Motor
Unknown
Mass
Unknown
Launch date (UTC)
2022-11-11 (4 years ago)
Launch vehicle
Unknown
Launch site
Taiyaun Space Center, China (TSC)
Object type
Payload
Rocket body
Debris
Shape & HBR
Unknown shape, 0.2 m
Radar Cross Section
Medium (>0.1 m² and <1 m²)

Expand to show TLE details & history
Last TLE update: 8 hours ago

TLE from 8 hours ago
0 CZ-6A DEB
1 54555U 22151LF  26236.29183814  .00000377  00000-0  17077-3 0  9992
2 54555  98.7212 262.8806 0042891 152.9358 207.4071 14.27271892196611
Epoch: 2026-08-24T07:00Z
TLE epoch observation values (Epoch: 2026-08-24T07:00:14.815Z)
Latitude
-0.00006°
Longitude
-174.75676°
Altitude
831.157 km
Speed
7.423 km/s
True Right ascension
17h 31m 31s
True Declination
0° 00' 00"
Sunlit
Object was in daylight at epoch
Visualization orbit readout
Latitude
Unknown
Longitude
Unknown
Altitude
Unknown
Speed
Unknown
Apparent Right ascension
Unknown
Apparent Declination
Unknown
Sunlit
N/A
Visualization observer readout
Local Sidereal Time
05:48:40
Azimuth
Unknown
Elevation
Unknown
Doppler factor
Unknown
Orbital elements
Apogee altitude
828.793 km
Perigee altitude
767.234 km
Semi-major axis
7,176.151 km
Eccentricity
0.00429
Inclination
98.7212°
RAAN
262.8806°
Arg. of periapsis
152.9358°
True anomaly
207.18193°
Mean anomaly
207.4071°
Eccentric anomaly
207.29441°
Mean motion
3.57031 °/min
Orbital period
100.83 mins
BSTAR
0.00017077
Loading maneuver chart data...
Computing Atmospheric mass density...
Loading historical data...
Loading historical data...
Loading historical data...
Loading historical data...
Loading historical data...
Loading historical data...
Loading historical data...

Documentation

Showing up to 5 results
|